TimeEDT,TemperatureF,Dew PointF,Humidity,Sea Level PressureIn,VisibilityMPH,Wind Direction,Wind SpeedMPH,Gust SpeedMPH,PrecipitationIn,Events,Conditions,WindDirDegrees,DateUTC
12:53 AM,44.1,41.0,89,29.97,10.0,South,5.8,-,N/A,,Clear,190,2013-10-18 04:53:00
1:53 AM,44.1,41.0,89,29.97,9.0,South,4.6,-,N/A,,Clear,180,2013-10-18 05:53:00
2:53 AM,45.0,41.0,86,29.98,8.0,South,5.8,-,N/A,,Clear,180,2013-10-18 06:53:00
3:53 AM,45.0,41.0,86,29.97,7.0,South,6.9,-,N/A,,Clear,190,2013-10-18 07:53:00
4:53 AM,44.1,41.0,89,29.98,6.0,South,6.9,-,N/A,,Clear,180,2013-10-18 08:53:00
5:53 AM,44.1,41.0,89,29.98,5.0,South,8.1,-,N/A,,Clear,180,2013-10-18 09:53:00
6:53 AM,44.1,41.0,89,29.98,5.0,South,8.1,-,N/A,,Clear,180,2013-10-18 10:53:00
7:53 AM,44.1,41.0,89,29.99,5.0,South,6.9,-,N/A,,Clear,170,2013-10-18 11:53:00
8:53 AM,46.0,43.0,89,30.01,5.0,South,9.2,-,N/A,,Clear,190,2013-10-18 12:53:00
9:53 AM,50.0,46.0,86,30.02,7.0,South,10.4,-,N/A,,Clear,190,2013-10-18 13:53:00
10:53 AM,55.9,48.0,75,30.02,10.0,SSW,10.4,-,N/A,,Clear,200,2013-10-18 14:53:00
11:53 AM,61.0,46.9,60,30.00,10.0,SSW,12.7,-,N/A,,Clear,200,2013-10-18 15:53:00
12:53 PM,66.0,44.1,45,29.99,10.0,SW,13.8,-,N/A,,Scattered Clouds,220,2013-10-18 16:53:00
1:53 PM,66.0,44.1,45,29.97,10.0,SW,15.0,21.9,N/A,,Clear,220,2013-10-18 17:53:00
2:53 PM,64.9,43.0,45,29.95,10.0,SW,12.7,20.7,N/A,,Scattered Clouds,230,2013-10-18 18:53:00
3:53 PM,66.0,44.1,45,29.93,10.0,SW,13.8,21.9,N/A,,Overcast,220,2013-10-18 19:53:00
4:53 PM,66.0,43.0,43,29.92,10.0,SW,11.5,-,N/A,,Mostly Cloudy,220,2013-10-18 20:53:00
5:53 PM,64.9,43.0,45,29.93,10.0,WSW,10.4,-,N/A,,Mostly Cloudy,240,2013-10-18 21:53:00
6:53 PM,57.9,44.1,60,29.94,10.0,SW,5.8,-,N/A,,Partly Cloudy,220,2013-10-18 22:53:00
7:53 PM,55.9,44.1,64,29.95,10.0,SW,4.6,-,N/A,,Mostly Cloudy,220,2013-10-18 23:53:00
8:53 PM,54.0,44.1,69,29.97,10.0,NNW,9.2,-,N/A,,Scattered Clouds,340,2013-10-19 00:53:00
9:53 PM,52.0,44.1,74,29.98,9.0,NNW,6.9,-,N/A,,Clear,340,2013-10-19 01:53:00
10:53 PM,48.9,43.0,80,29.99,9.0,North,5.8,-,N/A,,Mostly Cloudy,350,2013-10-19 02:53:00
11:53 PM,48.0,41.0,77,29.98,10.0,North,6.9,-,N/A,,Scattered Clouds,350,2013-10-19 03:53:00